Location: Brachbach
(49.1847°N, 9.7240°E)
Time: 17:31:48
(UTC+00:00)

DX 1 - Visible Passes

Search period start: 07 March 2026 00:00
Search period end: 17 March 2026 00:00
Orbit: 595 x 603 km, 98.4° (Epoch: 7 March)

Date Brightness Start Highest point End Pass type
(mag) Time Alt. Az. Time Alt. Az. Time Alt. Az.
7 Mar ? 02:14:21 10° NNE 02:15:23 17° NNE 02:15:23 17° NNE visible
7 Mar ? 03:51:16 10° NNW 03:52:08 13° NNW 03:52:08 13° NNW visible
8 Mar ? 02:25:09 10° NNE 02:26:27 20° NNE 02:26:27 20° NNE visible
8 Mar ? 04:02:36 10° NNW 04:03:11 11° NW 04:03:11 11° NW visible
9 Mar ? 02:35:59 10° N 02:37:30 22° N 02:37:30 22° N visible
10 Mar ? 02:46:49 10° N 02:48:34 23° N 02:48:34 23° N visible
11 Mar ? 01:22:34 10° NE 01:22:53 11° NE 01:22:53 11° NE visible
11 Mar ? 02:57:41 10° N 02:59:37 24° NNW 02:59:37 24° NNW visible
12 Mar ? 01:33:06 10° NE 01:33:56 14° NE 01:33:56 14° NE visible
12 Mar ? 03:08:36 10° N 03:10:40 24° NNW 03:10:40 24° NNW visible
13 Mar ? 01:43:43 10° NNE 01:44:58 18° NE 01:44:58 18° NE visible
13 Mar ? 03:19:31 10° N 03:21:42 23° NNW 03:21:42 23° NNW visible
14 Mar ? 01:54:22 10° NNE 01:56:00 21° NE 01:56:00 21° NE visible
14 Mar ? 03:30:30 10° N 03:32:44 20° NW 03:32:44 20° NW visible
15 Mar ? 02:05:03 10° NNE 02:07:01 26° NNE 02:07:01 26° NNE visible
15 Mar ? 03:41:32 10° NNW 03:43:46 18° NW 03:43:46 18° NW visible
16 Mar ? 02:15:46 10° NNE 02:18:02 31° NNE 02:18:02 31° NNE visible
16 Mar ? 03:52:38 10° NNW 03:54:47 15° NW 03:54:47 15° NW visible
